• Processing (Info)

  • MPEC 2019-V131 : A/2019 U6

    The following Minor Planet Electronic Circular may be linked-to from your own Web pages, but must not otherwise be redistributed electronically.

    A form allowing access to any MPEC is at the bottom of this page.


    Read MPEC 2019-V130 Read MPEC 2019-V132


    M.P.E.C. 2019-V131                             Issued 2019 November 8, 21:08 UT
    
         The Minor Planet Electronic Circulars contain information on unusual
             minor planets and routine data on comets.  They are published
        on behalf of Division F of the International Astronomical Union by the
              Minor Planet Center, Smithsonian Astrophysical Observatory,
                              Cambridge, MA 02138, U.S.A.
    
                 Prepared using the Tamkin Foundation Computer Network
    
                                  MPC@CFA.HARVARD.EDU
                URL https://www.minorplanetcenter.net/    ISSN 1523-6714
    
                                    A/2019 U6                                
    
    
    Observations:
        AK19U060* C2019 10 31.43368 05 47 29.43 -10 41 40.3          20.5 GVEV131G96
        AK19U060  C2019 10 31.43880 05 47 29.28 -10 41 45.6          20.6 GVEV131G96
        AK19U060  C2019 10 31.44390 05 47 29.19 -10 41 50.2          20.4 GVEV131G96
        AK19U060  C2019 10 31.44901 05 47 29.06 -10 41 55.4          20.8 GVEV131G96
        AK19U060  C2019 10 31.51441 05 47 27.49 -10 43 00.7          20.3 GVEV131I52
        AK19U060  C2019 10 31.51752 05 47 27.41 -10 43 03.8          20.0 GVEV131I52
        AK19U060  C2019 10 31.52064 05 47 27.31 -10 43 07.2          20.0 GVEV131I52
        AK19U060  C2019 10 31.52337 05 47 27.28 -10 43 09.6          20.1 GVEV131I52
        AK19U060 KC2019 11 01.33338905 47 08.08 -10 56 39.0          20.3 VuEV131H21
        AK19U060 KC2019 11 01.33774705 47 08.00 -10 56 43.4          20.7 VuEV131H21
        AK19U060 KC2019 11 01.34278605 47 07.84 -10 56 48.4          20.5 VuEV131H21
        AK19U060  C2019 11 01.34440 05 47 07.85 -10 56 49.6          19.7 GVEV131I52
        AK19U060  C2019 11 01.34932 05 47 07.73 -10 56 54.7          19.6 GVEV131I52
        AK19U060  C2019 11 01.35760 05 47 07.54 -10 57 02.8          19.3 GVEV131I52
        AK19U060  C2019 11 01.36461 05 47 07.34 -10 57 10.2          20.4 GVEV131I52
        AK19U060  C2019 11 03.50366 05 46 11.33 -11 33 05.8          19.5 GVEV131I52
        AK19U060  C2019 11 03.50673 05 46 11.25 -11 33 09.2          20.6 GVEV131I52
        AK19U060  C2019 11 03.50975 05 46 11.18 -11 33 12.3          19.8 GVEV131I52
        AK19U060  C2019 11 04.33609 05 45 47.94 -11 47 11.7          20.2 GVEV131I52
        AK19U060  C2019 11 04.33997 05 45 47.80 -11 47 15.8          20.4 GVEV131I52
        AK19U060  C2019 11 04.34409 05 45 47.70 -11 47 20.3          20.4 GVEV131I52
        AK19U060  C2019 11 04.35889 05 45 47.25 -11 47 35.8          20.4 GVEV131I52
        AK19U060 1C2019 11 05.66425 05 45 07.94 -12 09 46.8                VEV131Q62
        AK19U060 1C2019 11 05.66884 05 45 07.79 -12 09 51.9          20.2 GVEV131Q62
        AK19U060  C2019 11 07.39146 05 44 12.12 -12 39 29.3          20.2 GVEV131G96
        AK19U060  C2019 11 07.39612 05 44 11.94 -12 39 33.9          19.8 GVEV131G96
        AK19U060  C2019 11 07.40212 05 44 11.73 -12 39 39.6          20.6 GVEV131G96
        AK19U060  C2019 11 07.40685 05 44 11.53 -12 39 45.3          20.2 GVEV131G96
        AK19U060 KC2019 11 08.15263 05 43 46.04 -12 52 33.3          20.0 VUEV131X31
        AK19U060 KC2019 11 08.16898 05 43 45.50 -12 52 50.6          20.2 VUEV131X31
        AK19U060 KC2019 11 08.18482 05 43 44.92 -12 53 06.8          20.4 VUEV131X31
    
    Observer details:
    G96 Mt. Lemmon Survey.  Observers R. A. Kowalski, T. A. Pruyne.  Measurers E. 
       J. Christensen, G. A. Farneth, D. C. Fuls, A. R. Gibbs, A. D. Grauer, H. 
       Groeller, R. A. Kowalski, S. M. Larson, G. J. Leonard, T. A. Pruyne, D. 
       Rankin, R. L. Seaman, F. C. Shelly, K. W. Wierzchos.  1.5-m reflector + 10K 
       CCD.
    H21 Astronomical Research Observatory, Westfield.  Observer R. Holmes.  
        Measurers S. Foglia, L. Buzzi, T. Linder, R. Holmes.  0.76-m f/3.0 
       astrograph + CCD.
    I52 Steward Observatory, Mt. Lemmon Station.  Observers D. Rankin, G. J. 
       Leonard, R. A. Kowalski, K. W. Wierzchos.  Measurers E. J. Christensen, G. 
       A. Farneth, D. C. Fuls, A. R. Gibbs, A. D. Grauer, H. Groeller, R. A. 
       Kowalski, S. M. Larson, G. J. Leonard, T. A. Pruyne, D. Rankin, R. L. Seaman,
        F. C. Shelly, K. W. Wierzchos.  1.0-m reflector + CCD.
    Q62 iTelescope Observatory, Siding Spring.  Observer H. Sato.  0.43-m f/6.8 
       astrograph + CCD.
    X31 Galileo Galilei Observatory, Oro Verde.  Observers C. Fornari, J. 
       Rodriguez.  Measurer C. Fornari.  0.35-m f/11 Schmidt-Cassegrain + CCD.
    
    Orbital elements:
        A/2019 U6                                                                   
    T 2020 June 19.38820 TT                                 Bell                    
    q   0.9225826            (2000.0)            P               Q                  
                       Peri.  329.25479     -0.68571457     +0.05569361             
                       Node   235.88436     -0.34797571     -0.90082843             
    e   1.0            Incl.   61.23393     -0.63930309     +0.43058840             
    H   14.5                                                                        
    From 31 observations 2019 Oct. 31-Nov. 8.                                       
                                                                                    
    Ephemeris:
    Date    TT    R. A. (2000) Decl.     Delta      r    Elong.  Phase   m1    m2
    2019 10 09    05 50 27.7 -05 02 35   3.3167  3.7127   105.6    15.0        20.8
    ...
    2019 10 24    05 49 41.4 -08 41 33   2.9765  3.5473   117.5    14.4        20.4
    ...
    2019 11 01    05 47 16.1 -10 51 02   2.8105  3.4580   123.4    13.9        20.2
    ...
    2019 11 07    05 44 25.2 -12 32 41   2.6950  3.3906   127.5    13.4        20.1
    2019 11 08    05 43 51.3 -12 49 56   2.6766  3.3793   128.1    13.3        20.1
    2019 11 09    05 43 15.8 -13 07 14   2.6584  3.3680   128.7    13.3        20.0
    ...
    2019 11 15    05 39 09.8 -14 52 10   2.5546  3.3000   132.1    12.9        19.9
    ...
    2019 11 23    05 32 11.7 -17 12 51   2.4313  3.2087   135.2    12.5        19.7
    ...
    2019 12 08    05 14 47.2 -21 22 42   2.2507  3.0353   135.8    13.1        19.4
    
    M. P. C. Staff               (C) Copyright 2019 MPC           M.P.E.C. 2019-V131
    


    Read MPEC 2019-V130 Read MPEC 2019-V132


    MPEC number:

    Enter an MPEC number in one of the following forms:

    • 1997-B01 (the full form)
    • J97B01 (the packed version of the full form)
    • B01 (the abbreviated form)